map of GET home
GET - Airport
Location
City:  Geraldton, Western Australia, Australia
ICAO:YGEL
IATA:GET

Details
Type:Airport (Aerodrome, Airfield)
Latitude:2847'46"S (-28.796110)
Longitude:11442'27"E (114.707500)
Datum:WGS 1984
Elevation:121 ft (37 m)
Variation:1.04W (WMM2015v2 magnetic declination)
-0.00 annual change
Runways:3
Longest:6499 × 148 ft (1981 × 45 m), paved

Time
Time Zone:UTC+8
Local Time:

Weather
METAR:YGEL 041400Z AUTO 16011KT 9999 // NCD 21/18 Q1011 RF00.0/000.0
TAF:YGEL 040957Z 0412/0506 17020KT CAVOK
FM041300 16014KT CAVOK
FM041800 11010KT CAVOK
FM050400 19022KT CAVOK

Related Locations
Nearby:
Farthest:BDA: 12182 mi / 19605 km
Bermuda (St. George) [L.F. Wade Intl (Bermuda Intl, Kindley Field)], BM

Find:

   beyond  
but within

Other Information
Maps:
NOTAMs:
Links:
Sources:

  
  • flag of Australia
  • flag of Western Australia
  

Sectional Chart

Flight Planning
at skyvector.com

Satellite Image

Google Maps Satellite view

 

Copyright © 2004-2019 Karl L. Swartz. All rights reserved.
The Great Circle Mapper name and logo are trademarks of the Great Circle Mapper.
All other trademarks mentioned herein belong to their respective owners.
Please see credits for attibutions and further copyright information.

  Follow gcmap on Facebook Follow gcmap on Twitter GCmap on LinkedIn

hCard Microformat

Geo Microformat